QPF
0.00 0.00 0.00 0.00 0.00 0.00 0.00 0.00 0.00 0.00 0.00 0.00 0.00 0.00 0.00 0.00 0.00 0.00 0.00 0.00 0.00 0.00 0.00 0.00 0.00 0.00 0.00 0.00 0.00 0.00 0.00 0.00 0.00 0.00 0.00 0.00 0.00 0.00 0.00 0.00 0.00 0.00 0.00
0.00 0.00 0.00 0.00 0.00 0.00 0.00 0.00 0.00 0.00 0.00 0.00 0.00 0.00 0.00 0.00 0.00 0.00 0.00 0.00 0.00 0.00 0.00 0.00 0.00 0.00 0.00 0.00 0.00 0.00 0.00 0.00 0.00 0.00 0.00 0.00 0.00 0.00 0.00 0.00 0.00 0.00 0.00
0.00 0.00 0.00 0.00 0.00 0.00 0.00 0.00 0.00 0.00 0.00 0.00 0.00 0.00 0.00 0.00 0.00 0.00 0.00 0.00 0.00 0.00 0.00 0.00 0.00 0.00 0.00 0.00 0.00 0.00 0.00 0.00 0.00 0.00 0.00 0.00 0.00 0.00 0.00 0.00 0.00 0.00 0.00
0.00 0.00 0.00 0.00 0.00 0.00 0.00 0.00 0.00 0.00 0.00 0.00 0.00 0.00 0.00 0.00 0.00 0.00 0.00 0.00 0.00 0.00 0.00 0.00 0.00 0.00 0.00 0.00 0.00 0.00 0.00 0.00 0.00 0.00 0.00 0.00 0.00 0.00 0.00 0.00 0.00 0.00 0.00
0.00 0.00 0.00 0.00 0.00 0.00 0.00 0.00 0.00 0.00 0.00 0.00 0.00 0.00 0.00 0.00 0.00 0.00 0.00 0.00 0.00 0.00 0.00 0.00 0.00 0.00 0.00 0.00 0.00 0.00 0.00 0.00 0.00 0.00 0.00 0.00 0.00 0.00 0.00 0.00 0.00 0.00 0.00
0.01 0.00 0.00 0.00 0.00 0.00 0.00 0.00 0.00 0.00 0.00 0.00 0.00 0.00 0.00 0.00 0.00 0.00 0.00 0.00 0.00 0.00 0.00 0.00 0.00 0.00 0.00 0.00 0.00 0.00 0.00 0.00 0.00 0.00 0.00 0.00 0.00 0.00 0.00 0.00 0.00 0.00 0.00
0.02 0.01 0.01 0.00 0.00 0.00 0.00 0.00 0.00 0.00 0.00 0.00 0.00 0.00 0.00 0.00 0.00 0.00 0.00 0.00 0.00 0.00 0.00 0.00 0.00 0.00 0.00 0.00 0.00 0.00 0.00 0.00 0.00 0.00 0.00 0.00 0.00 0.00 0.00 0.00 0.00 0.00 0.01
0.05 0.04 0.02 0.01 0.00 0.00 0.00 0.00 0.00 0.00 0.00 0.00 0.00 0.00 0.00 0.00 0.00 0.00 0.00 0.00 0.00 0.00 0.00 0.00 0.00 0.00 0.00 0.00 0.00 0.00 0.00 0.00 0.00 0.00 0.00 0.00 0.00 0.00 0.00 0.00 0.01 0.01 0.01
0.07 0.05 0.04 0.02 0.00 0.00 0.00 0.00 0.00 0.00 0.00 0.00 0.00 0.00 0.00 0.00 0.00 0.00 0.00 0.00 0.00 0.00 0.00 0.00 0.00 0.00 0.00 0.00 0.00 0.00 0.00 0.00 0.00 0.00 0.00 0.00 0.00 0.00 0.01 0.01 0.01 0.02 0.02
0.07 0.05 0.04 0.02 0.01 0.00 0.00 0.00 0.00 0.00 0.00 0.00 0.00 0.00 0.00 0.00 0.00 0.00 0.00 0.00 0.00 0.00 0.00 0.00 0.00 0.00 0.00 0.00 0.00 0.00 0.00 0.00 0.00 0.00 0.00 0.00 0.01 0.01 0.02 0.02 0.03 0.03 0.03
0.05 0.04 0.03 0.02 0.01 0.00 0.00 0.00 0.00 0.00 0.00 0.00 0.00 0.00 0.00 0.00 0.00 0.00 0.00 0.00 0.00 0.00 0.00 0.00 0.00 0.00 0.00 0.00 0.00 0.00 0.00 0.00 0.00 0.00 0.00 0.01 0.02 0.02 0.03 0.04 0.04 0.05 0.05
0.03 0.03 0.02 0.01 0.01 0.00 0.00 0.00 0.00 0.00 0.00 0.00 0.00 0.00 0.00 0.00 0.00 0.00 0.00 0.00 0.00 0.00 0.00 0.00 0.00 0.00 0.00 0.00 0.00 0.00 0.00 0.00 0.00 0.00 0.00 0.01 0.02 0.03 0.04 0.04 0.05 0.05 0.05
0.03 0.02 0.01 0.01 0.01 0.01 0.00 0.00 0.00 0.00 0.00 0.00 0.00 0.00 0.00 0.00 0.00 0.00 0.00 0.00 0.00 0.00 0.00 0.00 0.00 0.00 0.00 0.00 0.00 0.00 0.00 0.00 0.00 0.00 0.00 0.01 0.02 0.02 0.03 0.03 0.04 0.04 0.05
0.04 0.03 0.01 0.01 0.01 0.00 0.00 0.00 0.00 0.00 0.00 0.00 0.00 0.00 0.00 0.00 0.00 0.00 0.00 0.00 0.00 0.00 0.00 0.00 0.00 0.00 0.00 0.00 0.00 0.00 0.00 0.00 0.00 0.00 0.00 0.01 0.01 0.02 0.02 0.02 0.03 0.03 0.04
0.03 0.02 0.01 0.01 0.00 0.00 0.00 0.00 0.00 0.00 0.00 0.00 0.00 0.00 0.00 0.00 0.00 0.00 0.00 0.00 0.00 0.00 0.00 0.00 0.00 0.00 0.00 0.00 0.00 0.00 0.00 0.00 0.00 0.00 0.00 0.01 0.01 0.01 0.02 0.02 0.02 0.03 0.03
0.02 0.01 0.00 0.00 0.00 0.00 0.00 0.00 0.00 0.00 0.00 0.00 0.00 0.00 0.00 0.00 0.00 0.00 0.00 0.00 0.00 0.00 0.00 0.00 0.00 0.00 0.00 0.00 0.00 0.00 0.00 0.00 0.00 0.00 0.00 0.00 0.01 0.01 0.01 0.02 0.02 0.02 0.03
0.01 0.00 0.00 0.00 0.00 0.00 0.00 0.00 0.00 0.00 0.00 0.00 0.00 0.00 0.00 0.00 0.00 0.00 0.00 0.00 0.00 0.00 0.00 0.00 0.00 0.00 0.00 0.00 0.00 0.00 0.00 0.00 0.00 0.00 0.00 0.00 0.00 0.01 0.01 0.01 0.02 0.02 0.03
0.00 0.00 0.00 0.00 0.00 0.00 0.00 0.00 0.00 0.00 0.00 0.00 0.00 0.00 0.00 0.00 0.00 0.00 0.00 0.00 0.00 0.00 0.00 0.00 0.00 0.00 0.00 0.00 0.00 0.00 0.00 0.00 0.00 0.00 0.00 0.00 0.00 0.00 0.01 0.01 0.01 0.02 0.02
0.00 0.00 0.00 0.00 0.00 0.00 0.00 0.00 0.00 0.00 0.00 0.00 0.00 0.00 0.00 0.00 0.00 0.00 0.00 0.00 0.00 0.00 0.00 0.00 0.00 0.00 0.00 0.00 0.00 0.00 0.00 0.00 0.00 0.00 0.00 0.00 0.00 0.00 0.00 0.01 0.01 0.01 0.01
0.00 0.00 0.00 0.00 0.00 0.00 0.00 0.00 0.00 0.00 0.00 0.00 0.00 0.00 0.00 0.00 0.00 0.00 0.00 0.00 0.00 0.00 0.00 0.00 0.00 0.00 0.00 0.00 0.00 0.00 0.00 0.00 0.00 0.00 0.00 0.00 0.00 0.00 0.00 0.00 0.00 0.00 0.00
0.00 0.00 0.00 0.00 0.00 0.00 0.00 0.00 0.00 0.00 0.00 0.00 0.00 0.00 0.00 0.00 0.00 0.00 0.00 0.00 0.00 0.00 0.01 0.01 0.01 0.01 0.01 0.00 0.00 0.00 0.00 0.00 0.00 0.00 0.00 0.00 0.00 0.00 0.00 0.00 0.00 0.00 0.00
0.00 0.00 0.00 0.00 0.00 0.00 0.00 0.00 0.00 0.00 0.00 0.00 0.00 0.00 0.00 0.00 0.00 0.00 0.00 0.00 0.00 0.01 0.01 0.03 0.03 0.02 0.01 0.00 0.00 0.00 0.00 0.01 0.01 0.00 0.00 0.00 0.00 0.00 0.00 0.00 0.00 0.00 0.00
0.00 0.00 0.00 0.00 0.00 0.00 0.00 0.00 0.00 0.00 0.00 0.00 0.00 0.00 0.00 0.00 0.00 0.00 0.00 0.00 0.00 0.01 0.02 0.02 0.02 0.01 0.00 0.00 0.00 0.01 0.01 0.01 0.01 0.00 0.00 0.00 0.00 0.00 0.00 0.00 0.00 0.00 0.00
0.01 0.00 0.00 0.00 0.00 0.00 0.00 0.00 0.00 0.00 0.00 0.00 0.00 0.00 0.00 0.00 0.00 0.00 0.00 0.01 0.01 0.01 0.01 0.00 0.00 0.00 0.00 0.00 0.01 0.02 0.02 0.01 0.00 0.00 0.00 0.00 0.00 0.00 0.00 0.00 0.00 0.00 0.00
0.00 0.00 0.00 0.00 0.00 0.00 0.00 0.00 0.00 0.00 0.00 0.00 0.00 0.00 0.00 0.00 0.00 0.00 0.01 0.01 0.01 0.00 0.00 0.00 0.00 0.00 0.00 0.00 0.00 0.00 0.01 0.02 0.01 0.00 0.00 0.00 0.00 0.00 0.00 0.00 0.00 0.00 0.00
0.00 0.00 0.00 0.00 0.00 0.00 0.00 0.00 0.00 0.00 0.00 0.00 0.00 0.00 0.00 0.00 0.00 0.01 0.01 0.01 0.00 0.00 0.00 0.00 0.00 0.00 0.00 0.00 0.00 0.00 0.01 0.05 0.04 0.02 0.00 0.01 0.01 0.01 0.02 0.00 0.00 0.00 0.00
MSLP
1015.00 1015.32 1015.62 1015.90 1016.19 1016.47 1016.76 1017.03 1017.27 1017.45 1017.56 1017.62 1017.64 1017.63 1017.65 1017.71 1017.84 1018.04 1018.30 1018.58 1018.87 1019.11 1019.29 1019.39 1019.41 1019.35 1019.24 1019.10 1018.95 1018.79 1018.64 1018.51 1018.38 1018.26 1018.15 1018.03 1017.91 1017.77 1017.61 1017.43 1017.22 1016.99 1016.75
1014.59 1014.97 1015.34 1015.71 1016.07 1016.44 1016.79 1017.11 1017.39 1017.60 1017.74 1017.82 1017.84 1017.85 1017.87 1017.93 1018.04 1018.22 1018.46 1018.73 1019.01 1019.26 1019.45 1019.58 1019.63 1019.60 1019.50 1019.36 1019.18 1018.99 1018.79 1018.60 1018.43 1018.28 1018.14 1018.01 1017.88 1017.75 1017.59 1017.41 1017.20 1016.97 1016.72
1014.16 1014.62 1015.07 1015.53 1015.99 1016.44 1016.87 1017.25 1017.56 1017.80 1017.96 1018.05 1018.09 1018.09 1018.10 1018.14 1018.23 1018.37 1018.57 1018.80 1019.05 1019.28 1019.48 1019.63 1019.71 1019.71 1019.64 1019.52 1019.34 1019.14 1018.91 1018.68 1018.46 1018.27 1018.09 1017.93 1017.78 1017.63 1017.47 1017.28 1017.07 1016.84 1016.59
1013.78 1014.31 1014.85 1015.41 1015.97 1016.50 1016.99 1017.42 1017.77 1018.03 1018.21 1018.30 1018.34 1018.34 1018.34 1018.36 1018.40 1018.50 1018.64 1018.81 1019.01 1019.21 1019.40 1019.55 1019.66 1019.70 1019.68 1019.59 1019.44 1019.25 1019.01 1018.76 1018.50 1018.26 1018.03 1017.83 1017.64 1017.45 1017.27 1017.07 1016.84 1016.60 1016.35
1013.49 1014.09 1014.73 1015.37 1016.01 1016.62 1017.16 1017.62 1017.99 1018.27 1018.44 1018.54 1018.58 1018.58 1018.57 1018.56 1018.57 1018.62 1018.70 1018.80 1018.94 1019.09 1019.25 1019.39 1019.52 1019.60 1019.62 1019.59 1019.48 1019.32 1019.10 1018.84 1018.56 1018.27 1017.99 1017.73 1017.49 1017.26 1017.03 1016.79 1016.54 1016.28 1016.01
1013.32 1013.99 1014.69 1015.41 1016.11 1016.77 1017.35 1017.83 1018.20 1018.47 1018.65 1018.74 1018.79 1018.79 1018.78 1018.77 1018.76 1018.76 1018.78 1018.82 1018.89 1018.97 1019.08 1019.21 1019.33 1019.43 1019.50 1019.51 1019.46 1019.34 1019.15 1018.90 1018.61 1018.30 1017.98 1017.66 1017.35 1017.06 1016.77 1016.48 1016.19 1015.90 1015.60
1013.28 1013.99 1014.74 1015.51 1016.25 1016.93 1017.52 1018.00 1018.37 1018.63 1018.80 1018.90 1018.96 1018.99 1019.00 1018.99 1018.97 1018.95 1018.93 1018.91 1018.90 1018.92 1018.97 1019.04 1019.14 1019.24 1019.33 1019.39 1019.38 1019.31 1019.16 1018.93 1018.64 1018.31 1017.95 1017.59 1017.22 1016.86 1016.51 1016.16 1015.82 1015.48 1015.15
1013.34 1014.07 1014.84 1015.62 1016.38 1017.06 1017.65 1018.12 1018.48 1018.73 1018.91 1019.02 1019.11 1019.17 1019.22 1019.24 1019.25 1019.22 1019.17 1019.10 1019.02 1018.96 1018.93 1018.93 1018.98 1019.06 1019.14 1019.21 1019.23 1019.20 1019.08 1018.88 1018.61 1018.27 1017.89 1017.49 1017.07 1016.65 1016.24 1015.84 1015.45 1015.07 1014.70
1013.45 1014.17 1014.94 1015.72 1016.47 1017.15 1017.72 1018.18 1018.53 1018.78 1018.96 1019.11 1019.24 1019.35 1019.45 1019.53 1019.57 1019.56 1019.50 1019.39 1019.25 1019.11 1018.98 1018.90 1018.87 1018.89 1018.93 1018.99 1019.02 1019.00 1018.90 1018.73 1018.47 1018.14 1017.75 1017.32 1016.87 1016.41 1015.95 1015.51 1015.08 1014.66 1014.26
1013.56 1014.26 1015.01 1015.77 1016.50 1017.16 1017.72 1018.17 1018.52 1018.78 1018.99 1019.18 1019.36 1019.54 1019.71 1019.85 1019.93 1019.95 1019.89 1019.75 1019.56 1019.34 1019.13 1018.95 1018.82 1018.75 1018.73 1018.73 1018.74 1018.71 1018.62 1018.46 1018.21 1017.88 1017.49 1017.05 1016.58 1016.10 1015.62 1015.14 1014.69 1014.25 1013.83
1013.63 1014.31 1015.03 1015.76 1016.47 1017.11 1017.66 1018.11 1018.47 1018.76 1019.00 1019.24 1019.47 1019.72 1019.95 1020.15 1020.29 1020.34 1020.29 1020.14 1019.91 1019.62 1019.32 1019.04 1018.81 1018.64 1018.53 1018.46 1018.41 1018.35 1018.25 1018.08 1017.83 1017.51 1017.12 1016.68 1016.20 1015.71 1015.21 1014.72 1014.25 1013.81 1013.38
1013.64 1014.29 1014.99 1015.70 1016.39 1017.02 1017.57 1018.03 1018.41 1018.73 1019.01 1019.29 1019.58 1019.87 1020.16 1020.42 1020.60 1020.69 1020.65 1020.50 1020.24 1019.90 1019.53 1019.16 1018.84 1018.57 1018.36 1018.21 1018.08 1017.96 1017.82 1017.63 1017.37 1017.05 1016.66 1016.21 1015.73 1015.23 1014.73 1014.23 1013.76 1013.31 1012.89
1013.59 1014.24 1014.92 1015.61 1016.29 1016.93 1017.48 1017.96 1018.36 1018.70 1019.02 1019.33 1019.65 1019.98 1020.31 1020.60 1020.81 1020.92 1020.90 1020.76 1020.49 1020.13 1019.71 1019.28 1018.88 1018.52 1018.22 1017.98 1017.77 1017.58 1017.38 1017.15 1016.86 1016.52 1016.12 1015.67 1015.18 1014.67 1014.16 1013.66 1013.18 1012.73 1012.31
1013.52 1014.17 1014.84 1015.54 1016.22 1016.86 1017.42 1017.92 1018.33 1018.69 1019.02 1019.35 1019.68 1020.02 1020.35 1020.65 1020.88 1021.01 1021.01 1020.88 1020.63 1020.27 1019.84 1019.38 1018.92 1018.50 1018.12 1017.80 1017.51 1017.24 1016.97 1016.68 1016.35 1015.97 1015.54 1015.07 1014.57 1014.04 1013.52 1013.01 1012.52 1012.06 1011.63
1013.46 1014.12 1014.81 1015.51 1016.20 1016.84 1017.42 1017.92 1018.34 1018.70 1019.03 1019.34 1019.66 1019.98 1020.29 1020.58 1020.80 1020.94 1020.96 1020.86 1020.63 1020.30 1019.88 1019.42 1018.95 1018.49 1018.06 1017.66 1017.29 1016.94 1016.60 1016.24 1015.84 1015.42 1014.95 1014.45 1013.92 1013.37 1012.82 1012.29 1011.77 1011.29 1010.84
1013.45 1014.14 1014.85 1015.56 1016.26 1016.91 1017.48 1017.97 1018.38 1018.73 1019.02 1019.30 1019.57 1019.85 1020.13 1020.38 1020.59 1020.73 1020.77 1020.69 1020.51 1020.22 1019.84 1019.41 1018.95 1018.47 1018.00 1017.55 1017.11 1016.68 1016.26 1015.82 1015.36 1014.87 1014.36 1013.81 1013.24 1012.66 1012.08 1011.51 1010.96 1010.44 1009.97
1013.54 1014.26 1014.99 1015.72 1016.42 1017.06 1017.62 1018.09 1018.46 1018.77 1019.02 1019.24 1019.45 1019.67 1019.89 1020.10 1020.28 1020.41 1020.46 1020.42 1020.28 1020.04 1019.72 1019.33 1018.88 1018.41 1017.92 1017.42 1016.92 1016.42 1015.92 1015.40 1014.87 1014.32 1013.75 1013.16 1012.55 1011.93 1011.31 1010.70 1010.11 1009.54 1009.02
1013.75 1014.50 1015.25 1015.98 1016.67 1017.29 1017.82 1018.24 1018.58 1018.82 1019.01 1019.17 1019.31 1019.46 1019.62 1019.78 1019.93 1020.04 1020.10 1020.08 1019.98 1019.79 1019.52 1019.16 1018.74 1018.27 1017.77 1017.23 1016.68 1016.11 1015.54 1014.95 1014.35 1013.74 1013.12 1012.48 1011.83 1011.17 1010.51 1009.86 1009.22 1008.61 1008.04
1014.08 1014.84 1015.60 1016.32 1016.99 1017.58 1018.06 1018.44 1018.71 1018.90 1019.03 1019.11 1019.19 1019.27 1019.37 1019.48 1019.58 1019.67 1019.72 1019.71 1019.64 1019.48 1019.23 1018.90 1018.50 1018.03 1017.51 1016.94 1016.34 1015.72 1015.09 1014.44 1013.78 1013.12 1012.45 1011.78 1011.09 1010.40 1009.70 1009.01 1008.34 1007.68 1007.06
1014.50 1015.28 1016.02 1016.73 1017.36 1017.90 1018.33 1018.65 1018.86 1018.99 1019.05 1019.08 1019.10 1019.12 1019.16 1019.22 1019.28 1019.33 1019.36 1019.34 1019.26 1019.10 1018.86 1018.54 1018.14 1017.66 1017.12 1016.53 1015.89 1015.23 1014.54 1013.85 1013.16 1012.46 1011.76 1011.05 1010.34 1009.62 1008.90 1008.17 1007.46 1006.76 1006.10
1015.00 1015.76 1016.48 1017.15 1017.74 1018.22 1018.60 1018.86 1019.01 1019.09 1019.10 1019.08 1019.05 1019.03 1019.01 1019.02 1019.03 1019.03 1019.02 1018.96 1018.85 1018.67 1018.41 1018.07 1017.66 1017.16 1016.60 1015.98 1015.32 1014.63 1013.92 1013.21 1012.49 1011.77 1011.05 1010.33 1009.60 1008.86 1008.11 1007.36 1006.61 1005.87 1005.17
1015.53 1016.26 1016.94 1017.56 1018.10 1018.52 1018.83 1019.04 1019.15 1019.18 1019.15 1019.10 1019.03 1018.97 1018.91 1018.86 1018.82 1018.76 1018.68 1018.57 1018.40 1018.17 1017.87 1017.50 1017.06 1016.54 1015.96 1015.34 1014.67 1013.97 1013.26 1012.54 1011.81 1011.09 1010.37 1009.64 1008.89 1008.14 1007.36 1006.58 1005.79 1005.02 1004.27
1016.04 1016.73 1017.37 1017.93 1018.40 1018.76 1019.02 1019.17 1019.24 1019.23 1019.18 1019.10 1019.01 1018.92 1018.82 1018.72 1018.62 1018.49 1018.34 1018.14 1017.91 1017.61 1017.26 1016.85 1016.37 1015.84 1015.25 1014.63 1013.97 1013.29 1012.59 1011.88 1011.18 1010.46 1009.74 1009.01 1008.25 1007.48 1006.67 1005.86 1005.03 1004.21 1003.41
1016.52 1017.16 1017.73 1018.23 1018.63 1018.93 1019.13 1019.24 1019.27 1019.24 1019.17 1019.08 1018.97 1018.84 1018.71 1018.56 1018.39 1018.19 1017.95 1017.68 1017.36 1017.00 1016.59 1016.14 1015.64 1015.10 1014.52 1013.91 1013.28 1012.63 1011.97 1011.29 1010.61 1009.91 1009.20 1008.46 1007.69 1006.89 1006.05 1005.19 1004.32 1003.45 1002.60
1016.95 1017.52 1018.03 1018.45 1018.78 1019.02 1019.17 1019.23 1019.24 1019.19 1019.11 1019.00 1018.87 1018.72 1018.54 1018.34 1018.11 1017.83 1017.52 1017.17 1016.78 1016.36 1015.90 1015.42 1014.91 1014.38 1013.82 1013.24 1012.65 1012.04 1011.42 1010.78 1010.12 1009.44 1008.73 1007.98 1007.19 1006.36 1005.49 1004.58 1003.66 1002.73 1001.82
1017.33 1017.83 1018.26 1018.61 1018.87 1019.04 1019.14 1019.16 1019.14 1019.07 1018.98 1018.86 1018.71 1018.53 1018.32 1018.07 1017.77 1017.43 1017.05 1016.64 1016.19 1015.72 1015.24 1014.74 1014.24 1013.72 1013.19 1012.65 1012.10 1011.53 1010.94 1010.33 1009.69 1009.01 1008.30 1007.54 1006.73 1005.86 1004.95 1004.00 1003.02 1002.04 1001.07
Thickness
5681 5679 5677 5674 5672 5669 5667 5665 5664 5662 5660 5658 5656 5655 5653 5652 5650 5647 5642 5640 5637 5635 5633 5631 5629 5628 5626 5625 5625 5624 5623 5623 5623 5623 5623 5623 5624 5624 5625 5626 5627 5628 5629
5678 5675 5672 5669 5666 5663 5661 5658 5656 5654 5652 5650 5648 5647 5645 5644 5642 5640 5635 5631 5628 5625 5623 5621 5620 5618 5617 5616 5615 5614 5614 5613 5613 5613 5613 5614 5615 5615 5616 5617 5618 5619 5620
5674 5670 5666 5662 5659 5656 5653 5650 5648 5646 5643 5642 5640 5639 5637 5635 5634 5631 5628 5624 5620 5616 5614 5612 5610 5608 5607 5606 5605 5605 5604 5604 5603 5603 5603 5604 5605 5605 5606 5607 5608 5609 5610
5669 5664 5659 5655 5652 5649 5645 5641 5639 5636 5634 5632 5631 5631 5629 5627 5625 5623 5620 5617 5612 5608 5605 5603 5601 5598 5597 5595 5595 5594 5594 5594 5593 5592 5593 5593 5593 5594 5595 5596 5597 5598 5599
5665 5659 5653 5649 5645 5641 5637 5634 5629 5627 5624 5622 5622 5622 5621 5619 5617 5614 5611 5608 5604 5601 5597 5594 5591 5588 5586 5585 5584 5583 5583 5582 5581 5581 5581 5581 5581 5582 5582 5583 5585 5586 5587
5660 5653 5647 5642 5638 5633 5628 5624 5620 5617 5614 5613 5614 5614 5613 5611 5609 5605 5602 5599 5596 5592 5588 5585 5582 5579 5576 5574 5572 5571 5570 5569 5568 5568 5568 5568 5568 5568 5569 5570 5571 5572 5574
5654 5647 5641 5635 5631 5625 5621 5617 5612 5608 5604 5603 5603 5602 5602 5601 5599 5596 5593 5589 5586 5583 5579 5575 5572 5569 5565 5563 5560 5559 5557 5556 5555 5554 5553 5553 5553 5553 5554 5555 5557 5558 5559
5647 5641 5635 5629 5624 5618 5614 5609 5605 5599 5595 5593 5590 5589 5587 5588 5587 5587 5583 5579 5576 5573 5569 5565 5561 5557 5554 5551 5548 5546 5544 5541 5539 5538 5538 5537 5537 5537 5538 5540 5541 5543 5544
5638 5633 5628 5622 5617 5612 5606 5602 5597 5593 5586 5582 5579 5576 5572 5569 5568 5572 5572 5569 5565 5560 5557 5553 5550 5545 5541 5538 5535 5531 5528 5526 5523 5522 5521 5521 5520 5520 5522 5523 5525 5526 5528
5629 5625 5620 5615 5610 5604 5599 5594 5589 5584 5580 5573 5569 5566 5561 5557 5552 5550 5554 5555 5554 5549 5545 5542 5538 5533 5528 5524 5520 5516 5512 5509 5507 5505 5504 5503 5503 5503 5504 5505 5506 5507 5508
5621 5617 5613 5607 5601 5596 5591 5585 5580 5575 5571 5565 5560 5556 5552 5546 5542 5535 5535 5537 5537 5535 5532 5529 5527 5523 5519 5514 5508 5503 5498 5494 5490 5488 5486 5486 5486 5486 5486 5486 5486 5486 5486
5612 5609 5605 5599 5593 5587 5582 5576 5571 5565 5560 5555 5550 5545 5539 5534 5529 5524 5521 5521 5521 5521 5519 5516 5514 5511 5506 5502 5496 5489 5484 5479 5475 5472 5470 5469 5468 5467 5466 5464 5463 5462 5461
5605 5601 5597 5591 5584 5578 5572 5566 5561 5555 5550 5544 5539 5533 5528 5523 5518 5512 5507 5504 5504 5506 5506 5504 5500 5495 5490 5485 5479 5474 5469 5464 5459 5456 5454 5452 5450 5447 5444 5441 5438 5436 5433
5600 5595 5589 5582 5576 5570 5564 5558 5552 5546 5540 5534 5529 5523 5517 5511 5506 5501 5494 5488 5486 5488 5488 5487 5483 5478 5472 5467 5462 5457 5452 5446 5442 5439 5436 5433 5428 5424 5419 5415 5410 5406 5402
5592 5586 5581 5574 5567 5561 5555 5549 5543 5536 5530 5524 5518 5513 5507 5502 5496 5490 5484 5476 5468 5467 5471 5470 5464 5462 5454 5449 5444 5439 5434 5428 5423 5419 5413 5407 5402 5396 5390 5384 5379 5374 5369
5585 5578 5571 5565 5558 5552 5545 5539 5533 5526 5520 5514 5508 5502 5496 5490 5485 5478 5471 5464 5456 5451 5451 5452 5445 5440 5435 5430 5424 5419 5413 5406 5399 5392 5384 5378 5371 5365 5360 5354 5350 5348 5346
5575 5569 5563 5555 5549 5542 5535 5529 5522 5516 5510 5504 5498 5493 5486 5480 5473 5466 5458 5451 5443 5436 5436 5438 5429 5422 5416 5410 5405 5398 5390 5383 5374 5365 5356 5349 5343 5339 5335 5333 5332 5333 5334
5566 5560 5553 5546 5538 5531 5525 5518 5512 5506 5500 5493 5487 5481 5475 5468 5461 5453 5445 5437 5429 5422 5417 5419 5415 5406 5399 5391 5386 5378 5370 5359 5349 5340 5332 5327 5323 5321 5320 5321 5323 5325 5328
5555 5549 5542 5534 5526 5519 5513 5507 5501 5495 5489 5483 5476 5470 5463 5455 5447 5439 5431 5422 5415 5409 5401 5397 5396 5388 5380 5370 5364 5357 5347 5336 5325 5318 5313 5311 5309 5310 5312 5314 5317 5319 5322
5544 5537 5530 5522 5514 5508 5501 5495 5489 5483 5477 5471 5465 5458 5450 5443 5434 5426 5418 5409 5401 5394 5385 5378 5374 5369 5360 5350 5340 5334 5330 5318 5309 5302 5301 5301 5302 5304 5305 5307 5310 5313 5316
5531 5524 5517 5509 5502 5495 5488 5481 5476 5470 5464 5458 5451 5445 5438 5430 5423 5415 5407 5398 5389 5379 5370 5362 5356 5349 5340 5329 5319 5311 5308 5306 5300 5293 5296 5296 5295 5298 5299 5301 5304 5308 5312
5518 5511 5503 5497 5490 5484 5476 5470 5464 5457 5451 5444 5438 5432 5425 5417 5409 5403 5394 5384 5373 5362 5352 5343 5337 5327 5319 5308 5301 5295 5291 5292 5296 5290 5288 5293 5290 5293 5295 5297 5300 5305 5309
5505 5498 5491 5485 5479 5471 5465 5458 5452 5445 5438 5431 5425 5418 5412 5404 5396 5387 5379 5370 5356 5342 5331 5323 5316 5307 5300 5293 5288 5285 5282 5281 5284 5283 5280 5290 5289 5291 5291 5292 5295 5299 5303
5493 5486 5480 5474 5468 5461 5454 5447 5441 5433 5426 5420 5413 5406 5398 5390 5382 5375 5367 5355 5341 5327 5316 5307 5299 5294 5288 5284 5280 5279 5278 5279 5280 5276 5271 5278 5285 5287 5289 5288 5289 5293 5298
5481 5476 5470 5464 5457 5450 5443 5436 5429 5420 5413 5407 5400 5392 5384 5377 5369 5362 5352 5340 5328 5314 5302 5293 5287 5282 5280 5277 5275 5273 5271 5269 5274 5276 5267 5268 5275 5280 5285 5285 5287 5290 5293
5471 5465 5459 5453 5446 5439 5433 5426 5418 5409 5402 5394 5386 5378 5369 5362 5354 5344 5333 5322 5313 5303 5293 5286 5279 5275 5273 5270 5266 5263 5259 5258 5261 5266 5264 5261 5263 5262 5279 5287 5284 5284 5286